www.pogodaiklimat.ru

ПОГОДА в Grand Etang

  • Прогноз погоды в Grand Etang
  • Монитор погоды в Grand Etang
  • Климат города

АРХИВ ПОГОДЫ в Grand Etang

Время (UTC), дата Ветер
(напр.,м/с)
 
Видим.   Явления Облачность Т
(С)
Тd
(С)
f
(%)
Тe
(С)
Тes
(С)
Комфортность P
(гПа)
Po
(гПа)
Тmin
(С)
Tmax
(С)
R
(мм)
S
(см)
18 9.01 С 5 2800 м дым ясно -36.3 -40.2 67 -51 -50 опасность
обморожения
1012.2 1005.5 -38.7 -34.1
21 9.01 СЗ 5 4800 м дым ясно -35.8 -39.8 66 -49 -49 опасность
обморожения
1012.2 1005.5
00 10.01 СЗ 5 4800 м дым ясно -35.4 -39.4 67 -49 -49 опасность
обморожения
1011.6 1005.0 -38.4 -34.1
03 10.01 СЗ 5 4800 м дым ясно -37.6 -41.9 64 -52 -52 опасность
обморожения
1010.5 1003.9
06 10.01 СЗ 6 4800 м дым 10/10 300 м
[]
-36.8 -40.9 66 -52 -52 опасность
обморожения
1009.5 1002.9 -38.4 -34.1
09 10.01 СЗ 7 4000 м дым ясно -37.6 -41.8 65 -54 -54 опасность
обморожения
1008.8 1002.2
12 10.01 З 4 4800 м дым 10/10 300 м
[]
-36.4 -40.5 66 -48 -48 опасность
обморожения
1008.1 1001.5 -37.9 -34.1
15 10.01 З 4 3600 м дым 10/10 300 м
[]
-34.5 -38.3 68 -46 -46 опасность
обморожения
1007.6 1001.0
18 10.01 З 3 4800 м дым 10/10 300 м
[]
-34.1 -38.0 68 -44 -44 опасность
обморожения
1007.6 1001.0 -37.9 -33.6
21 10.01 ЮЗ 3 4000 м слаб. снег 10/10 600 м
[]
-35.3 -39.2 67 -46 -46 опасность
обморожения
1007.6 1001.0
00 11.01 Ю 4 4800 м дым 10/10 300 м
[]
-35.3 -39.3 67 -48 -48 опасность
обморожения
1008.2 1001.6 -37.9 -33.6
03 11.01 Ю 5 4800 м дым 9/9 300 м
[]
-35.3 -39.2 67 -49 -49 опасность
обморожения
1009.6 1003.0
06 11.01 Ю 4 4800 м дым 5/5 300 м
[]
-35.5 -39.5 67 -47 -47 опасность
обморожения
1011.6 1005.0 -37.9 -33.6
09 11.01 ЮВ 4 4800 м дым ясно -35.8 -39.8 66 -48 -48 опасность
обморожения
1014.0 1007.4
12 11.01 ЮВ 2 4800 м дым ясно -35.3 -39.1 68 -42 -42 опасность
обморожения
1016.3 1009.6 -36.2 -33.6
15 11.01 СВ 4 4800 м дым ясно -37.2 -41.4 65 -49 -47 опасность
обморожения
1018.1 1011.4
18 11.01 СВ 3 4800 м дым ясно -37.7 -42.0 64 -49 -47 опасность
обморожения
1019.5 1012.8 -38.0 -34.7
21 11.01 СВ 5 4800 м дым ясно -38.3 -42.6 64 -53 -53 опасность
обморожения
1020.6 1013.9
00 12.01 С 4 4800 м дым ясно -38.9 -43.3 63 -52 -52 опасность
обморожения
1021.4 1014.7 -38.9 -35.3
03 12.01 С 5 4800 м дым ясно -39.3 -43.7 63 -54 -54 опасность
обморожения
1021.4 1014.7
06 12.01 С 4 4800 м дым ясно -40.2 -44.7 62 -54 -54 опасность
обморожения
1021.2 1014.4 -40.2 -34.7
09 12.01 С 6 4800 м дым ясно -39.6 -44.0 63 -56 -56 опасность
обморожения
1020.5 1013.7
12 12.01 СВ 5 4800 м дым ясно -39.1 -43.5 63 -54 -54 опасность
обморожения
1019.7 1013.0 -40.5 -34.7
15 12.01 С 4 4800 м дым ясно -38.9 -43.3 63 -52 -51 опасность
обморожения
1018.8 1012.1
18 12.01 С 5 6000 м дым ясно -37.5 -41.7 65 -52 -51 опасность
обморожения
1017.4 1010.7 -40.5 -37.4
21 12.01 СЗ 5 3200 м дым ясно -38.2 -42.7 62 -53 -53 опасность
обморожения
1016.7 1010.0
00 13.01 СЗ 6 4800 м дым ясно -36.6 -40.8 65 -52 -52 опасность
обморожения
1015.9 1009.2 -40.5 -35.5
03 13.01 С 6 4800 м дым 10/10 1500 м
[]
-36.0 -40.1 66 -51 -51 опасность
обморожения
1014.7 1008.0
06 13.01 ЮЗ 3 1600 м дым ясно -38.3 -42.6 64 -49 -49 опасность
обморожения
1014.2 1007.5 -40.5 -35.5
09 13.01 СЗ 5 4800 м дым ясно -37.9 -42.2 64 -53 -53 опасность
обморожения
1014.0 1007.3
12 13.01 ЮЗ 3 1600 м дым ясно -38.9 -43.3 63 -50 -50 опасность
обморожения
1014.1 1007.4 -39.6 -35.5
15 13.01 ЮЗ 4 1200 м дым 5/5 50 м
[]
-40.3 -44.8 62 -54 -53 опасность
обморожения
1014.0 1007.3
18 13.01 ЮЗ 4 1200 м дым ясно -39.0 -43.4 63 -52 -50 опасность
обморожения
1014.0 1007.3 -40.3 -36.8
21 13.01 З 4 1600 м дым ясно -38.8 -43.2 63 -52 -52 опасность
обморожения
1014.5 1007.8
00 14.01 З 4 4800 м дым ясно -36.9 -41.0 66 -49 -49 опасность
обморожения
1014.6 1007.9 -40.3 -36.9
03 14.01 З 4 2000 м дым ясно -38.8 -43.2 63 -51 -51 опасность
обморожения
1014.0 1007.3
06 14.01 З 4 1600 м дым ясно -39.3 -43.7 63 -53 -53 опасность
обморожения
1013.3 1006.6 -40.3 -36.4
09 14.01 З 3 1600 м дым 9/9 <50 м
[]
-38.3 -42.6 64 -50 -50 опасность
обморожения
1013.6 1006.9
12 14.01 СЗ 4 4800 м дым ясно -37.4 -41.7 64 -51 -51 опасность
обморожения
1012.9 1006.2 -39.8 -36.4
15 14.01 СЗ 4 4800 м дым 10/10 100 м
[]
-37.9 -42.2 64 -50 -50 опасность
обморожения
1012.6 1005.9
18 14.01 З 4 3600 м дым ясно -38.9 -43.4 62 -51 -50 опасность
обморожения
1011.8 1005.1 -39.8 -35.4
21 14.01 З 4 3200 м дым 9/9 <50 м
[]
-38.3 -42.8 62 -51 -51 опасность
обморожения
1011.8 1005.1
00 15.01 СЗ 2 3200 м дым 10/10 50 м
[]
-37.3 -41.5 65 -46 -46 опасность
обморожения
1011.6 1004.9 -39.8 -36.4
03 15.01 З 3 3600 м дым 10/10 100 м
[]
-37.0 -41.2 65 -48 -48 опасность
обморожения
1010.8 1004.1
06 15.01 З 4 4800 м дым 10/10 100 м
[]
-37.7 -41.9 65 -51 -51 опасность
обморожения
1010.7 1004.0 -39.8 -35.4 21
09 15.01 С 6 4800 м дым 9/9 300 м
[]
-37.0 -41.2 65 -53 -53 опасность
обморожения
1010.1 1003.4
12 15.01 З 4 4800 м дым 10/10 600 м
[]
-36.7 -40.9 65 -49 -49 опасность
обморожения
1010.0 1003.4 -38.2 -35.4
15 15.01 З 4 3600 м дым ясно -37.8 -42.1 64 -51 -49 опасность
обморожения
1010.0 1003.3
18 15.01 СЗ 7 2000 м дым 5/5 600 м
[]
-38.6 -43.0 63 -55 -55 опасность
обморожения
1010.2 1003.5 -39.4 -36.2
21 15.01 З 4 1600 м дым ясно -38.6 -43.1 62 -52 -52 опасность
обморожения
1012.0 1005.3
00 16.01 З 3 1600 м дым ясно -39.1 -43.5 63 -50 -50 опасность
обморожения
1013.1 1006.4 -39.5 -36.7
03 16.01 З 3 1200 м дым 3/3 100 м
[]
-39.6 -44.0 63 -51 -51 опасность
обморожения
1013.3 1006.6
06 16.01 ЮЗ 6 2400 м дым 9/0
[]
-38.2 -42.5 64 -54 -54 опасность
обморожения
1013.5 1006.8 -39.9 -36.2 19
09 16.01 ЮЗ 5 4800 м дым 9/0
[]
-37.5 -41.7 65 -51 -51 опасность
обморожения
1013.0 1006.3
12 16.01 Ю 7 2000 м дым 9/9 50 м
[]
-34.4 -38.2 68 -50 -50 опасность
обморожения
1009.3 1002.7 -39.9 -36.2
15 16.01 Ю 8 1200 м слаб. снег 10/10 600 м
[]
-30.9 -34.3 72 -46 -46 опасность
обморожения
1004.3 997.7

 

Местоположение метеостанции Grand Etang (Канада): широта 46.55 долгота -61.05 высота над уровнем моря 13 м.

В архиве по умолчанию представлена погода в Grand Etang за последнюю неделю. Архивные данные за месяц целиком и за предыдущие месяцы, начиная с января 2011 года, Вы можете получить, выбрав интересующий диапазон дат из раскрывающегося списка и нажав кнопку "Ввод!".

Внимание! Время в таблицах - всемирное. Для получения местного времени необходимо прибавить поправку, которая в Grand Etang равна -4 ч.

Ветер - указаны скорость ветра в м/с - средняя за 10 мин, порывы в срок и между сроками (в фигурных скобках) и направление, откуда дует ветер: С - северный, СВ - северо-восточный, В - восточный, ЮВ - юго-восточный, Ю - южный, ЮЗ - юго-западный, З - западный, СЗ - северо-западный.
Видимость - горизонтальная дальность видимости в метрах или километрах. При видимости от 1 до 10 км при отсутствии осадков обычно наблюдается дымка, при ухудшении видимости до 1 км и менее - туман. В сухую погоду видимость может ухудшаться дымом, пылью или мглою.
Явления - указаны атмосферные явления, наблюдавшиеся в срок или в последний час перед сроком; фигурными скобками обозначены явления, наблюдавшиеся между сроками (за 1-3 часа до срока); квадратными скобками обозначены град или гололедные отложения с указанием их диаметра в мм.
Облачность - указаны через наклонную черту общая и нижняя облачность в баллах и высота нижней границы облаков в метрах; квадратными скобками обозначены формы облаков: Ci - перистые, Cs - перисто-слоистые, Cc - перисто-кучевые, Ac - высококучевые, As - высокослоистые, Sc - слоисто-кучевые, Ns - слоисто-дождевые, Cu - кучевые, Cb - кучево-дождевые. Подробнее классификацию облаков см. в Атласе облаков (PDF).
T - Температура воздуха - температура, измеренная на высоте 2 м над землей.
Td - Температура точки росы - температура, при понижении до которой содержащийся в воздухе водяной пар достигнет насыщения.
f - Относительная влажность воздуха - влажноcть воздуха, измеренная на высоте 2 м над землей.
Te - Эффективная температура - температура, которую ощущает одетый по сезону человек в тени. Характеристика душности погоды. При расчете учитывается влияние влажности воздуха и скорости ветра на теплоощущения человека.
Tes - Эффективная температура на солнце - температура, которую ощущает человек, с поправкой на солнечный нагрев. Характеристика знойности погоды. Зависит от высоты солнца над горизонтом, облачности и скорости ветра. Ночью, в пасмурную погоду, а также при ветре 12 м/с и более поправка равна нулю.
P - Атмосферное давление - приведенное к уровню моря атмосферное давление.
Po - Атмосферное давление - измеренное на уровне метеостанции атмосферное давление.
Tmin - Минимальная температура - минимум температуры воздуха на высоте 2 м над землей.
Tmax - Максимальная температура - максимум температуры воздуха на высоте 2 м над землей.
R - Количество осадков - Количество выпавших осадков, мм. При наведении курсора мыши на число - период времени, за который выпало указанное количество осадков.
S - Снежный покров - Высота снежного покрова, см. При наведении курсора мыши на число - состояние снежного покрова и степень покрытия местности в баллах.